Weather History for Cagliari, Italy

Change the Weather History Date:

Saturday, December 8, 2012

  Actual Average Record
Temperature  
Mean Temperature 50 °F -  
Max Temperature 55 °F 59 °F 69 °F (2010)
Min Temperature 44 °F 43 °F 32 °F (1998)
Degree Days  
Heating Degree Days 16    
Moisture  
Dew Point 41 °F    
Average Humidity 72    
Maximum Humidity 82    
Minimum Humidity 54    
Precipitation  
Precipitation 0.12 in 0.07 in - ()
Sea Level Pressure  
Sea Level Pressure 29.77 in    
Wind  
Wind Speed 11 mph ()    
Max Wind Speed 26 mph    
Max Gust Speed 37 mph    
Visibility 6.2 miles    
Events Rain , Thunderstorm    
Averages and records for this station are not official NWS values.
T = Trace of Precipitation, MM = Missing Value Source: Averaged Metar Reports

Daily Weather History Graph

Daily Weather History Graph

Search for Another Location

Airport:

Trip Planner

Search our weather history database for the weather conditions in past years. The results will help you decide how hot, cold, wet, or windy it might be!

Date:

Astronomy

Dec. 08, 2012 Rise Set
Actual Time 7:30 AM CET 5:00 PM CET
Civil Twilight 7:01 AM CET 5:30 PM CET
Nautical Twilight 6:27 AM CET 6:03 PM CET
Astronomical Twilight 5:55 AM CET 6:36 PM CET
Moon 1:39 AM CET (12/8) 1:19 PM CET (12/8)
Length of Visible Light 10h 29m
Length of Day
9h 29m
Waning Crescent, 31% of the Moon is Illuminated
Dec 8
Waning Crescent
Dec 13
New
Dec 20
First Quarter
Dec 28
Full
Jan 5
Last Quarter

Hourly Weather History & Observations

Time (CET) Temp. Windchill Dew Point Humidity Pressure Visibility Wind Dir Wind Speed Gust Speed Precip Events Conditions
12:15 AM 55.4 °F - 48.2 °F 77% 29.77 in 6.2 mi West 6.9 mph - N/A   Mostly Cloudy
12:45 AM 53.6 °F - 48.2 °F 82% 29.74 in 5.0 mi North 2.3 mph - N/A Rain Light Rain
12:55 AM 53.6 °F - 48.2 °F 82% 29.74 in 5.0 mi North 2.3 mph - N/A Rain Light Rain
1:00 AM 54 °F - 49 °F 77% 29.75 in 5 mi North 2.3 mph - - Rain Light Rain
1:15 AM 53.6 °F - 48.2 °F 82% 29.74 in 5.0 mi NNW 3.5 mph - N/A Rain Light Rain
1:45 AM 55.4 °F - 48.2 °F 77% 29.71 in 5.0 mi West 12.7 mph - N/A Rain Light Rain
1:55 AM 55.4 °F - 48.2 °F 77% 29.71 in 5.0 mi West 12.7 mph - N/A Rain Light Rain
2:15 AM 55.4 °F - 48.2 °F 77% 29.71 in 5.0 mi NW 15.0 mph - N/A Rain Light Rain
2:45 AM 51.8 °F - 46.4 °F 82% 29.74 in 5.0 mi NNW 16.1 mph - N/A Rain Light Rain
2:55 AM 51.8 °F - 46.4 °F 82% 29.74 in 5.0 mi NNW 16.1 mph - N/A Rain Light Rain
3:15 AM - - - N/A% 29.74 in 5.0 mi NNW 15.0 mph - N/A Rain Light Rain
3:45 AM 50.0 °F - 44.6 °F 82% 29.71 in 6.2 mi NW 11.5 mph - N/A Rain Light Rain
3:55 AM 50.0 °F - 44.6 °F 82% 29.71 in 6.2 mi NW 11.5 mph - N/A Rain Light Rain
4:00 AM 50 °F - 44 °F 72% 29.73 in 6 mi NW 11.5 mph - - Rain Light Rain
4:15 AM 50.0 °F - 44.6 °F 82% 29.71 in 6.2 mi NW 9.2 mph - N/A Rain Light Rain
4:45 AM 50.0 °F - 44.6 °F 82% 29.71 in 6.2 mi WNW 15.0 mph - N/A   Mostly Cloudy
4:55 AM 50.0 °F - 44.6 °F 82% 29.71 in 6.2 mi WNW 15.0 mph - N/A   Mostly Cloudy
5:15 AM 50.0 °F - 44.6 °F 82% 29.71 in 6.2 mi WNW 16.1 mph - N/A   Mostly Cloudy
5:45 AM 50.0 °F - 44.6 °F 82% 29.71 in 6.2 mi WNW 15.0 mph - N/A   Mostly Cloudy
5:55 AM 50.0 °F - 44.6 °F 82% 29.71 in 6.2 mi WNW 15.0 mph - N/A   Mostly Cloudy
6:15 AM 50.0 °F - 44.6 °F 82% 29.71 in 6.2 mi WNW 15.0 mph - N/A   Mostly Cloudy
6:45 AM 50.0 °F - 41.0 °F 71% 29.71 in 6.2 mi WNW 12.7 mph - N/A   Mostly Cloudy
6:55 AM 50.0 °F - 41.0 °F 71% 29.71 in 6.2 mi WNW 12.7 mph - N/A   Mostly Cloudy
7:00 AM 50 °F - 41 °F 62% 29.73 in 9 mi WNW 12.7 mph - -   Partly Cloudy
7:15 AM 50.0 °F - 42.8 °F 76% 29.71 in 6.2 mi NW 13.8 mph - N/A   Mostly Cloudy
7:45 AM 50.0 °F - 42.8 °F 76% 29.71 in 6.2 mi WNW 17.3 mph - N/A   Mostly Cloudy
7:55 AM 50.0 °F - 42.8 °F 76% 29.71 in 6.2 mi WNW 17.3 mph - N/A   Mostly Cloudy
8:15 AM 51.8 °F - 42.8 °F 71% 29.74 in 6.2 mi WNW 12.7 mph - N/A   Mostly Cloudy
8:45 AM - - - N/A% 29.74 in 6.2 mi WNW 10.4 mph - N/A   Mostly Cloudy
8:55 AM 51.8 °F - 42.8 °F 71% 29.74 in 6.2 mi WNW 10.4 mph - N/A   Mostly Cloudy
9:15 AM - - - N/A% 29.74 in 6.2 mi WNW 13.8 mph - N/A Rain Light Rain
9:45 AM 50.0 °F - 41.0 °F 71% 29.77 in 6.2 mi WNW 10.4 mph - N/A   Partly Cloudy
9:55 AM 50.0 °F - 41.0 °F 71% 29.77 in 6.2 mi WNW 10.4 mph - N/A   Partly Cloudy
10:00 AM 50 °F - 41 °F 62% 29.78 in 7 mi WNW 10.4 mph - - Rain Light Rain
10:15 AM 53.6 °F - 39.2 °F 58% 29.77 in 6.2 mi WNW 13.8 mph - N/A Rain Light Rain
10:45 AM 53.6 °F - 39.2 °F 58% 29.77 in 6.2 mi WNW 15.0 mph 27.6 mph N/A Rain Light Rain
10:55 AM 53.6 °F - 39.2 °F 58% 29.77 in 6.2 mi WNW 15.0 mph 27.6 mph N/A Rain Light Rain
11:15 AM - - - N/A% 29.77 in 6.2 mi West 13.8 mph - N/A   Scattered Clouds
11:45 AM - - - N/A% 29.77 in 6.2 mi WNW 16.1 mph - N/A   Mostly Cloudy
11:55 AM 53.6 °F - 37.4 °F 54% 29.77 in 6.2 mi WNW 16.1 mph - N/A   Mostly Cloudy
12:15 PM - - - N/A% 29.77 in 6.2 mi West 13.8 mph - N/A   Scattered Clouds
12:45 PM 51.8 °F - 41.0 °F 67% 29.74 in 6.2 mi West 13.8 mph - N/A   Scattered Clouds
12:55 PM 51.8 °F - 41.0 °F 67% 29.74 in 6.2 mi West 13.8 mph - N/A   Scattered Clouds
1:00 PM 51 °F - 41 °F 59% 29.77 in 7 mi West 13.8 mph - - Rain Light Rain
1:15 PM - - - N/A% 29.74 in 6.2 mi NW 13.8 mph - N/A Rain Light Rain
1:45 PM - - - N/A% 29.74 in 6.2 mi NW 13.8 mph - N/A Rain Light Rain
1:55 PM 51.8 °F - 41.0 °F 67% 29.74 in 6.2 mi NW 13.8 mph - N/A Rain Light Rain
2:15 PM - - - N/A% 29.74 in 6.2 mi NW 24.2 mph - N/A Rain Light Rain
2:45 PM 46.4 °F 38.1 °F 39.2 °F 76% 29.74 in 6.2 mi NW 24.2 mph - N/A   Scattered Clouds
2:55 PM 46.4 °F 38.1 °F 39.2 °F 76% 29.74 in 6.2 mi NW 24.2 mph - N/A   Scattered Clouds
3:15 PM - - - N/A% 29.74 in 6.2 mi WNW 26.5 mph - N/A Rain Light Rain
3:45 PM 46.4 °F 38.5 °F 37.4 °F 71% 29.74 in 6.2 mi WNW 21.9 mph 36.8 mph N/A Rain Light Rain
3:55 PM 46.4 °F 38.5 °F 37.4 °F 71% 29.74 in 6.2 mi WNW 21.9 mph 36.8 mph N/A Rain Light Rain
4:00 PM 47 °F - 38 °F 63% 29.76 in 7 mi WNW 21.9 mph - - Rain Light Rain
4:15 PM 48.2 °F - 39.2 °F 71% 29.74 in 6.2 mi West 17.3 mph - N/A   Scattered Clouds
4:45 PM 48.2 °F - 37.4 °F 66% 29.77 in 6.2 mi NNW 18.4 mph - N/A   Mostly Cloudy
4:55 PM 48.2 °F - 37.4 °F 66% 29.77 in 6.2 mi NNW 18.4 mph - N/A   Mostly Cloudy
5:15 PM 48.2 °F - 39.2 °F 71% 29.77 in 6.2 mi NW 13.8 mph - N/A   Scattered Clouds
5:45 PM - - - N/A% 29.77 in 6.2 mi WNW 13.8 mph - N/A Rain , Thunderstorm Light Thunderstorms and Rain
5:55 PM 46.4 °F 40.4 °F 39.2 °F 76% 29.77 in 6.2 mi WNW 13.8 mph - N/A Rain , Thunderstorm Light Thunderstorms and Rain
6:15 PM - - - N/A% 29.77 in 6.2 mi West 17.3 mph - N/A Rain , Thunderstorm Light Thunderstorms and Rain
6:45 PM 46.4 °F 41.5 °F 37.4 °F 71% 29.80 in 6.2 mi WNW 10.4 mph - N/A   Mostly Cloudy
6:55 PM 46.4 °F 41.5 °F 37.4 °F 71% 29.80 in 6.2 mi WNW 10.4 mph - N/A   Mostly Cloudy
7:00 PM 46 °F - 38 °F 63% 29.82 in 6 mi WNW 10.4 mph - - Thunderstorm Thunderstorm
7:15 PM 48.2 °F - 39.2 °F 71% 29.83 in 6.2 mi WNW 12.7 mph - N/A   Mostly Cloudy
7:45 PM - - - N/A% 29.83 in 6.2 mi NW 6.9 mph - N/A Rain , Thunderstorm Light Thunderstorms and Rain
7:55 PM 46.4 °F 42.9 °F 37.4 °F 71% 29.83 in 6.2 mi NW 6.9 mph - N/A Rain , Thunderstorm Light Thunderstorms and Rain
8:15 PM - - - N/A% 29.86 in 6.2 mi WNW 9.2 mph - N/A Thunderstorm Mostly Cloudy
8:45 PM - - - N/A% 29.86 in 6.2 mi WNW 5.8 mph - N/A Thunderstorm Scattered Clouds
8:55 PM 46.4 °F 43.5 °F 37.4 °F 71% 29.86 in 6.2 mi WNW 5.8 mph - N/A Thunderstorm Scattered Clouds
9:15 PM 46.4 °F 41.9 °F 37.4 °F 71% 29.89 in 6.2 mi NW 9.2 mph - N/A   Scattered Clouds
9:45 PM 44.6 °F 40.2 °F 35.6 °F 71% 29.89 in 6.2 mi NW 8.1 mph - N/A   Partly Cloudy
9:55 PM 44.6 °F 40.2 °F 35.6 °F 71% 29.89 in 6.2 mi NW 8.1 mph - N/A   Partly Cloudy
10:00 PM 45 °F - 36 °F 62% 29.90 in 12 mi NW 8.1 mph - -   Partly Cloudy
10:15 PM 44.6 °F 40.2 °F 35.6 °F 71% 29.89 in 6.2 mi NW 8.1 mph - N/A   Partly Cloudy
10:45 PM 44.6 °F 39.2 °F 35.6 °F 71% 29.92 in 6.2 mi WNW 10.4 mph - N/A   Partly Cloudy
10:55 PM 44.6 °F 39.2 °F 35.6 °F 71% 29.92 in 6.2 mi WNW 10.4 mph - N/A   Partly Cloudy
11:15 PM 46.4 °F 41.9 °F 35.6 °F 66% 29.92 in 6.2 mi WNW 9.2 mph - N/A   Partly Cloudy
11:45 PM 44.6 °F 40.7 °F 35.6 °F 71% 29.92 in 6.2 mi NNW 6.9 mph - N/A   Partly Cloudy
11:55 PM 44.6 °F 40.7 °F 35.6 °F 71% 29.92 in 6.2 mi NNW 6.9 mph - N/A   Partly Cloudy